QPF
0.03 0.04 0.04 0.03 0.03 0.04 0.03 0.03 0.03 0.04 0.03 0.03 0.03 0.02 0.01 0.01 0.01 0.01 0.01 0.01 0.03 0.03 0.02 0.01 0.01 0.01 0.01 0.02 0.03 0.03 0.02 0.02 0.02 0.03 0.03 0.04 0.05 0.05 0.06 0.07 0.07 0.05 0.05
0.02 0.04 0.06 0.04 0.03 0.03 0.03 0.02 0.03 0.03 0.03 0.03 0.03 0.03 0.03 0.02 0.02 0.02 0.02 0.01 0.02 0.03 0.03 0.02 0.01 0.02 0.02 0.02 0.02 0.02 0.02 0.01 0.01 0.02 0.03 0.04 0.04 0.03 0.04 0.05 0.05 0.04 0.03
0.02 0.03 0.04 0.05 0.03 0.02 0.01 0.01 0.02 0.03 0.04 0.04 0.05 0.04 0.04 0.03 0.03 0.02 0.02 0.01 0.02 0.02 0.03 0.02 0.01 0.02 0.03 0.02 0.02 0.02 0.02 0.01 0.01 0.02 0.02 0.02 0.02 0.02 0.03 0.03 0.04 0.03 0.02
0.02 0.02 0.03 0.03 0.03 0.02 0.01 0.01 0.02 0.02 0.03 0.04 0.05 0.04 0.04 0.03 0.03 0.03 0.02 0.03 0.02 0.02 0.04 0.03 0.01 0.01 0.02 0.02 0.02 0.02 0.02 0.01 0.01 0.02 0.02 0.01 0.01 0.01 0.01 0.01 0.01 0.02 0.01
0.02 0.02 0.02 0.03 0.03 0.03 0.02 0.01 0.01 0.01 0.02 0.02 0.04 0.04 0.04 0.03 0.03 0.03 0.03 0.03 0.03 0.02 0.03 0.02 0.01 0.01 0.01 0.01 0.02 0.02 0.02 0.01 0.01 0.02 0.02 0.02 0.01 0.01 0.01 0.01 0.00 0.01 0.01
0.03 0.04 0.05 0.03 0.02 0.02 0.01 0.01 0.01 0.01 0.01 0.02 0.03 0.03 0.03 0.03 0.03 0.03 0.04 0.04 0.03 0.03 0.03 0.02 0.01 0.02 0.01 0.01 0.02 0.02 0.02 0.01 0.01 0.01 0.01 0.01 0.01 0.01 0.00 0.00 0.00 0.00 0.00
0.03 0.04 0.05 0.04 0.02 0.02 0.01 0.01 0.01 0.01 0.01 0.02 0.02 0.02 0.02 0.03 0.03 0.03 0.04 0.04 0.04 0.03 0.03 0.03 0.02 0.02 0.02 0.02 0.02 0.01 0.01 0.02 0.02 0.01 0.01 0.01 0.01 0.01 0.01 0.00 0.00 0.00 0.00
0.03 0.04 0.04 0.04 0.02 0.02 0.02 0.01 0.01 0.01 0.01 0.02 0.02 0.01 0.01 0.02 0.02 0.02 0.02 0.03 0.03 0.04 0.05 0.05 0.04 0.03 0.02 0.02 0.02 0.01 0.01 0.01 0.02 0.01 0.01 0.01 0.01 0.01 0.01 0.00 0.00 0.00 0.00
0.02 0.03 0.03 0.03 0.02 0.02 0.02 0.01 0.01 0.01 0.01 0.01 0.01 0.01 0.01 0.01 0.01 0.01 0.02 0.02 0.03 0.04 0.04 0.05 0.06 0.04 0.04 0.04 0.03 0.03 0.03 0.02 0.01 0.01 0.01 0.01 0.01 0.01 0.00 0.00 0.00 0.00 0.00
0.02 0.02 0.02 0.02 0.02 0.02 0.03 0.02 0.02 0.01 0.01 0.01 0.00 0.01 0.01 0.01 0.01 0.01 0.01 0.01 0.02 0.03 0.04 0.05 0.07 0.05 0.04 0.03 0.03 0.02 0.03 0.03 0.02 0.02 0.01 0.01 0.00 0.00 0.00 0.00 0.00 0.00 0.00
0.01 0.01 0.02 0.03 0.04 0.03 0.03 0.03 0.02 0.01 0.00 0.00 0.00 0.01 0.00 0.00 0.00 0.00 0.01 0.01 0.02 0.03 0.04 0.06 0.06 0.04 0.03 0.03 0.03 0.04 0.04 0.03 0.03 0.02 0.01 0.01 0.01 0.00 0.00 0.00 0.00 0.00 0.00
0.01 0.01 0.02 0.02 0.03 0.03 0.02 0.02 0.02 0.01 0.00 0.00 0.00 0.00 0.00 0.00 0.00 0.00 0.01 0.01 0.02 0.02 0.03 0.04 0.03 0.02 0.02 0.02 0.02 0.02 0.02 0.01 0.01 0.01 0.01 0.01 0.00 0.00 0.00 0.00 0.00 0.00 0.00
0.01 0.01 0.01 0.01 0.02 0.02 0.03 0.02 0.02 0.01 0.00 0.00 0.00 0.00 0.01 0.01 0.01 0.01 0.01 0.02 0.03 0.02 0.02 0.02 0.01 0.01 0.02 0.02 0.02 0.02 0.02 0.01 0.01 0.01 0.01 0.01 0.01 0.00 0.00 0.00 0.00 0.00 0.00
0.01 0.01 0.01 0.01 0.02 0.02 0.02 0.02 0.02 0.02 0.01 0.00 0.00 0.00 0.01 0.01 0.01 0.01 0.01 0.01 0.02 0.02 0.02 0.02 0.01 0.01 0.01 0.02 0.02 0.02 0.01 0.01 0.01 0.01 0.00 0.00 0.01 0.01 0.00 0.00 0.00 0.00 0.00
0.00 0.00 0.00 0.01 0.01 0.01 0.01 0.01 0.02 0.02 0.01 0.00 0.00 0.00 0.01 0.01 0.01 0.01 0.01 0.01 0.01 0.02 0.01 0.01 0.01 0.01 0.01 0.01 0.01 0.01 0.01 0.01 0.01 0.01 0.00 0.00 0.00 0.01 0.01 0.00 0.00 0.00 0.01
0.00 0.00 0.01 0.01 0.01 0.01 0.01 0.02 0.01 0.02 0.02 0.01 0.00 0.00 0.01 0.01 0.00 0.01 0.00 0.01 0.01 0.02 0.02 0.01 0.01 0.01 0.01 0.01 0.01 0.00 0.00 0.00 0.01 0.01 0.01 0.01 0.00 0.00 0.01 0.01 0.01 0.01 0.01
0.00 0.00 0.01 0.01 0.01 0.00 0.01 0.01 0.02 0.02 0.02 0.03 0.02 0.01 0.01 0.01 0.00 0.00 0.00 0.00 0.00 0.01 0.02 0.01 0.01 0.01 0.01 0.01 0.01 0.01 0.00 0.00 0.00 0.00 0.01 0.01 0.01 0.00 0.00 0.00 0.00 0.00 0.00
0.00 0.01 0.01 0.01 0.01 0.01 0.01 0.01 0.01 0.01 0.02 0.03 0.04 0.03 0.02 0.01 0.01 0.01 0.00 0.00 0.01 0.01 0.01 0.01 0.01 0.01 0.01 0.01 0.01 0.01 0.01 0.00 0.00 0.00 0.00 0.01 0.01 0.01 0.01 0.01 0.00 0.00 0.00
0.00 0.01 0.01 0.01 0.01 0.01 0.01 0.01 0.01 0.01 0.01 0.02 0.03 0.05 0.04 0.03 0.02 0.01 0.01 0.01 0.02 0.01 0.01 0.01 0.01 0.01 0.01 0.01 0.01 0.01 0.01 0.00 0.00 0.00 0.00 0.00 0.01 0.01 0.02 0.01 0.01 0.00 0.00
0.00 0.00 0.01 0.01 0.01 0.01 0.01 0.01 0.01 0.01 0.01 0.02 0.02 0.04 0.05 0.05 0.03 0.02 0.02 0.02 0.02 0.02 0.01 0.01 0.01 0.01 0.01 0.01 0.01 0.01 0.01 0.01 0.00 0.00 0.00 0.00 0.01 0.01 0.02 0.01 0.01 0.01 0.00
0.00 0.00 0.00 0.00 0.01 0.01 0.01 0.00 0.01 0.01 0.01 0.01 0.01 0.02 0.03 0.03 0.03 0.03 0.03 0.02 0.02 0.02 0.02 0.02 0.01 0.01 0.01 0.01 0.01 0.01 0.01 0.01 0.01 0.00 0.00 0.00 0.01 0.01 0.01 0.01 0.01 0.01 0.01
0.00 0.00 0.00 0.00 0.00 0.00 0.00 0.00 0.00 0.01 0.01 0.01 0.01 0.01 0.02 0.03 0.03 0.03 0.03 0.02 0.02 0.02 0.02 0.01 0.01 0.01 0.01 0.01 0.01 0.01 0.01 0.01 0.01 0.01 0.01 0.01 0.01 0.01 0.02 0.01 0.01 0.01 0.02
0.00 0.00 0.00 0.00 0.00 0.00 0.00 0.01 0.01 0.01 0.01 0.01 0.01 0.01 0.01 0.02 0.02 0.02 0.04 0.03 0.02 0.02 0.01 0.01 0.01 0.01 0.01 0.01 0.01 0.01 0.01 0.01 0.01 0.01 0.01 0.01 0.01 0.02 0.02 0.02 0.01 0.02 0.01
0.00 0.00 0.00 0.00 0.00 0.00 0.00 0.01 0.01 0.01 0.01 0.00 0.01 0.01 0.01 0.02 0.02 0.02 0.04 0.06 0.04 0.03 0.02 0.02 0.01 0.01 0.01 0.00 0.01 0.01 0.01 0.01 0.01 0.01 0.02 0.02 0.02 0.02 0.02 0.02 0.02 0.02 0.02
0.00 0.00 0.00 0.00 0.00 0.00 0.00 0.01 0.01 0.01 0.01 0.01 0.01 0.01 0.01 0.01 0.02 0.02 0.03 0.06 0.07 0.05 0.03 0.03 0.02 0.01 0.01 0.01 0.01 0.01 0.01 0.00 0.01 0.01 0.02 0.02 0.02 0.02 0.02 0.02 0.01 0.01 0.02
0.00 0.00 0.00 0.00 0.00 0.00 0.00 0.01 0.01 0.01 0.01 0.01 0.01 0.01 0.01 0.01 0.01 0.02 0.03 0.05 0.07 0.06 0.04 0.04 0.04 0.02 0.01 0.01 0.01 0.01 0.01 0.01 0.02 0.02 0.01 0.02 0.02 0.01 0.01 0.01 0.01 0.01 0.01
MSLP
1016.62 1016.56 1016.58 1016.64 1016.71 1016.77 1016.78 1016.77 1016.73 1016.69 1016.68 1016.71 1016.80 1016.95 1017.13 1017.34 1017.57 1017.79 1018.01 1018.24 1018.48 1018.76 1019.07 1019.44 1019.85 1020.29 1020.75 1021.21 1021.64 1022.04 1022.41 1022.73 1023.02 1023.28 1023.50 1023.68 1023.81 1023.87 1023.84 1023.72 1023.52 1023.23 1022.88
1017.83 1017.73 1017.71 1017.73 1017.76 1017.76 1017.71 1017.61 1017.48 1017.35 1017.24 1017.17 1017.15 1017.19 1017.27 1017.38 1017.51 1017.66 1017.83 1018.02 1018.24 1018.52 1018.86 1019.26 1019.70 1020.19 1020.68 1021.16 1021.62 1022.04 1022.42 1022.76 1023.08 1023.37 1023.64 1023.88 1024.07 1024.21 1024.27 1024.24 1024.11 1023.90 1023.61
1019.18 1019.04 1018.97 1018.95 1018.93 1018.88 1018.77 1018.60 1018.39 1018.17 1017.96 1017.79 1017.65 1017.57 1017.54 1017.53 1017.56 1017.62 1017.71 1017.84 1018.03 1018.29 1018.63 1019.04 1019.51 1020.01 1020.53 1021.03 1021.50 1021.93 1022.32 1022.68 1023.01 1023.34 1023.65 1023.94 1024.21 1024.43 1024.58 1024.65 1024.62 1024.49 1024.29
1020.59 1020.41 1020.30 1020.24 1020.17 1020.06 1019.89 1019.67 1019.40 1019.10 1018.81 1018.54 1018.31 1018.12 1017.96 1017.85 1017.76 1017.72 1017.71 1017.77 1017.91 1018.12 1018.44 1018.83 1019.29 1019.80 1020.31 1020.82 1021.29 1021.72 1022.12 1022.49 1022.84 1023.20 1023.54 1023.89 1024.22 1024.52 1024.76 1024.92 1025.00 1024.98 1024.86
1021.98 1021.76 1021.62 1021.51 1021.40 1021.24 1021.03 1020.75 1020.43 1020.08 1019.73 1019.39 1019.08 1018.80 1018.55 1018.33 1018.14 1017.99 1017.89 1017.86 1017.91 1018.06 1018.31 1018.66 1019.08 1019.56 1020.05 1020.54 1021.00 1021.44 1021.84 1022.22 1022.59 1022.96 1023.34 1023.73 1024.11 1024.48 1024.80 1025.05 1025.22 1025.30 1025.29
1023.27 1023.04 1022.87 1022.72 1022.56 1022.36 1022.11 1021.80 1021.45 1021.07 1020.68 1020.30 1019.94 1019.60 1019.28 1018.97 1018.69 1018.45 1018.24 1018.11 1018.06 1018.12 1018.28 1018.54 1018.89 1019.30 1019.75 1020.20 1020.65 1021.07 1021.47 1021.86 1022.25 1022.64 1023.05 1023.47 1023.89 1024.30 1024.69 1025.01 1025.28 1025.45 1025.54
1024.41 1024.18 1023.99 1023.81 1023.61 1023.38 1023.09 1022.76 1022.39 1022.00 1021.60 1021.21 1020.82 1020.45 1020.09 1019.72 1019.37 1019.04 1018.74 1018.49 1018.33 1018.26 1018.30 1018.46 1018.70 1019.03 1019.40 1019.81 1020.22 1020.63 1021.04 1021.44 1021.84 1022.25 1022.68 1023.12 1023.57 1024.02 1024.44 1024.83 1025.15 1025.41 1025.59
1025.37 1025.15 1024.95 1024.75 1024.52 1024.25 1023.95 1023.60 1023.22 1022.83 1022.44 1022.05 1021.67 1021.29 1020.90 1020.50 1020.09 1019.68 1019.29 1018.94 1018.65 1018.45 1018.36 1018.38 1018.50 1018.72 1019.01 1019.35 1019.73 1020.13 1020.53 1020.95 1021.37 1021.81 1022.26 1022.71 1023.18 1023.64 1024.08 1024.50 1024.88 1025.21 1025.47
1026.15 1025.95 1025.75 1025.53 1025.27 1024.98 1024.65 1024.29 1023.91 1023.53 1023.15 1022.78 1022.41 1022.03 1021.64 1021.22 1020.76 1020.29 1019.82 1019.36 1018.96 1018.63 1018.39 1018.27 1018.26 1018.36 1018.56 1018.84 1019.18 1019.56 1019.98 1020.41 1020.86 1021.32 1021.78 1022.25 1022.72 1023.19 1023.65 1024.09 1024.50 1024.88 1025.21
1026.77 1026.59 1026.39 1026.15 1025.88 1025.56 1025.21 1024.83 1024.45 1024.07 1023.70 1023.34 1022.98 1022.61 1022.21 1021.78 1021.30 1020.78 1020.23 1019.69 1019.17 1018.72 1018.35 1018.10 1017.96 1017.96 1018.06 1018.28 1018.58 1018.95 1019.37 1019.83 1020.30 1020.79 1021.27 1021.76 1022.24 1022.71 1023.16 1023.62 1024.05 1024.47 1024.86
1027.26 1027.10 1026.89 1026.64 1026.34 1025.99 1025.61 1025.22 1024.82 1024.43 1024.06 1023.70 1023.34 1022.97 1022.57 1022.12 1021.62 1021.06 1020.47 1019.86 1019.26 1018.71 1018.23 1017.86 1017.62 1017.51 1017.54 1017.69 1017.95 1018.30 1018.73 1019.20 1019.70 1020.21 1020.72 1021.22 1021.71 1022.19 1022.65 1023.11 1023.56 1024.01 1024.44
1027.66 1027.51 1027.30 1027.02 1026.69 1026.32 1025.90 1025.48 1025.05 1024.64 1024.24 1023.87 1023.50 1023.11 1022.70 1022.24 1021.72 1021.14 1020.52 1019.86 1019.21 1018.59 1018.04 1017.59 1017.26 1017.07 1017.01 1017.10 1017.32 1017.64 1018.06 1018.54 1019.05 1019.58 1020.11 1020.63 1021.14 1021.62 1022.10 1022.57 1023.04 1023.51 1023.98
1028.01 1027.85 1027.62 1027.32 1026.96 1026.55 1026.11 1025.64 1025.18 1024.73 1024.30 1023.88 1023.48 1023.07 1022.63 1022.15 1021.62 1021.04 1020.40 1019.74 1019.06 1018.41 1017.82 1017.31 1016.91 1016.65 1016.53 1016.55 1016.71 1016.99 1017.37 1017.83 1018.34 1018.88 1019.43 1019.96 1020.49 1021.00 1021.49 1021.98 1022.47 1022.97 1023.47
1028.33 1028.15 1027.90 1027.57 1027.19 1026.74 1026.25 1025.75 1025.24 1024.74 1024.26 1023.79 1023.34 1022.89 1022.42 1021.92 1021.39 1020.80 1020.18 1019.53 1018.86 1018.21 1017.60 1017.06 1016.62 1016.29 1016.10 1016.04 1016.13 1016.34 1016.66 1017.08 1017.56 1018.09 1018.64 1019.18 1019.73 1020.26 1020.79 1021.30 1021.82 1022.35 1022.88
1028.61 1028.41 1028.14 1027.79 1027.38 1026.90 1026.38 1025.83 1025.27 1024.72 1024.17 1023.65 1023.14 1022.64 1022.13 1021.61 1021.07 1020.51 1019.91 1019.28 1018.65 1018.02 1017.41 1016.86 1016.38 1016.00 1015.73 1015.58 1015.57 1015.69 1015.93 1016.28 1016.70 1017.19 1017.72 1018.28 1018.84 1019.40 1019.96 1020.51 1021.07 1021.62 1022.18
1028.85 1028.64 1028.35 1027.99 1027.56 1027.05 1026.50 1025.91 1025.30 1024.69 1024.08 1023.49 1022.92 1022.36 1021.81 1021.27 1020.73 1020.18 1019.61 1019.03 1018.43 1017.84 1017.25 1016.69 1016.18 1015.74 1015.40 1015.15 1015.03 1015.04 1015.17 1015.42 1015.77 1016.20 1016.70 1017.24 1017.81 1018.40 1018.99 1019.59 1020.18 1020.77 1021.35
1029.05 1028.83 1028.53 1028.16 1027.72 1027.20 1026.62 1025.99 1025.33 1024.66 1023.99 1023.33 1022.69 1022.08 1021.49 1020.92 1020.37 1019.83 1019.29 1018.75 1018.19 1017.63 1017.06 1016.51 1015.97 1015.48 1015.05 1014.72 1014.48 1014.36 1014.38 1014.52 1014.78 1015.14 1015.60 1016.12 1016.69 1017.30 1017.92 1018.55 1019.17 1019.79 1020.40
1029.20 1028.97 1028.68 1028.30 1027.85 1027.31 1026.71 1026.05 1025.35 1024.62 1023.89 1023.16 1022.46 1021.79 1021.15 1020.55 1019.98 1019.44 1018.91 1018.39 1017.87 1017.33 1016.78 1016.23 1015.67 1015.14 1014.65 1014.23 1013.89 1013.67 1013.57 1013.61 1013.78 1014.07 1014.48 1014.97 1015.53 1016.14 1016.78 1017.43 1018.08 1018.73 1019.36
1029.28 1029.07 1028.77 1028.40 1027.93 1027.38 1026.75 1026.05 1025.31 1024.53 1023.74 1022.96 1022.19 1021.46 1020.76 1020.12 1019.52 1018.96 1018.42 1017.90 1017.39 1016.86 1016.32 1015.77 1015.21 1014.65 1014.12 1013.64 1013.24 1012.94 1012.77 1012.72 1012.82 1013.05 1013.40 1013.86 1014.40 1014.99 1015.64 1016.30 1016.96 1017.63 1018.28
1029.32 1029.11 1028.81 1028.42 1027.93 1027.36 1026.70 1025.97 1025.19 1024.36 1023.52 1022.68 1021.85 1021.05 1020.29 1019.59 1018.94 1018.33 1017.76 1017.22 1016.69 1016.17 1015.63 1015.08 1014.52 1013.97 1013.43 1012.94 1012.52 1012.19 1011.97 1011.89 1011.94 1012.12 1012.43 1012.85 1013.36 1013.93 1014.55 1015.20 1015.87 1016.53 1017.18
1029.31 1029.09 1028.77 1028.36 1027.84 1027.23 1026.54 1025.77 1024.95 1024.08 1023.19 1022.29 1021.41 1020.55 1019.72 1018.94 1018.22 1017.55 1016.92 1016.33 1015.77 1015.22 1014.68 1014.14 1013.60 1013.07 1012.57 1012.11 1011.71 1011.40 1011.20 1011.11 1011.15 1011.31 1011.59 1011.97 1012.44 1012.98 1013.56 1014.19 1014.83 1015.47 1016.12
1029.27 1029.02 1028.67 1028.20 1027.64 1026.99 1026.25 1025.45 1024.59 1023.69 1022.76 1021.82 1020.88 1019.95 1019.05 1018.19 1017.38 1016.62 1015.91 1015.25 1014.63 1014.04 1013.49 1012.96 1012.45 1011.97 1011.53 1011.14 1010.82 1010.57 1010.42 1010.37 1010.43 1010.59 1010.85 1011.20 1011.63 1012.12 1012.66 1013.24 1013.84 1014.46 1015.09
1029.21 1028.91 1028.49 1027.96 1027.35 1026.64 1025.86 1025.02 1024.13 1023.20 1022.24 1021.27 1020.28 1019.30 1018.33 1017.39 1016.48 1015.62 1014.80 1014.05 1013.36 1012.72 1012.14 1011.61 1011.14 1010.72 1010.36 1010.07 1009.84 1009.68 1009.61 1009.62 1009.72 1009.90 1010.15 1010.48 1010.87 1011.31 1011.80 1012.33 1012.89 1013.48 1014.09
1029.13 1028.75 1028.26 1027.66 1026.97 1026.21 1025.39 1024.52 1023.62 1022.67 1021.70 1020.70 1019.68 1018.65 1017.62 1016.59 1015.59 1014.62 1013.70 1012.85 1012.07 1011.36 1010.75 1010.21 1009.76 1009.40 1009.11 1008.91 1008.77 1008.71 1008.72 1008.80 1008.94 1009.14 1009.40 1009.70 1010.06 1010.46 1010.91 1011.40 1011.92 1012.48 1013.08
1029.03 1028.56 1027.99 1027.32 1026.57 1025.76 1024.91 1024.02 1023.10 1022.16 1021.18 1020.18 1019.14 1018.08 1016.99 1015.89 1014.80 1013.74 1012.72 1011.76 1010.89 1010.11 1009.44 1008.88 1008.43 1008.09 1007.86 1007.71 1007.65 1007.66 1007.73 1007.85 1008.02 1008.24 1008.49 1008.78 1009.12 1009.49 1009.90 1010.36 1010.87 1011.42 1012.02
1028.92 1028.37 1027.72 1026.98 1026.18 1025.33 1024.46 1023.57 1022.65 1021.72 1020.76 1019.76 1018.73 1017.65 1016.53 1015.38 1014.23 1013.08 1011.97 1010.92 1009.96 1009.10 1008.36 1007.75 1007.27 1006.92 1006.68 1006.55 1006.50 1006.53 1006.62 1006.75 1006.93 1007.13 1007.37 1007.64 1007.96 1008.31 1008.72 1009.18 1009.69 1010.26 1010.87
Thickness
5689 5690 5691 5691 5690 5689 5688 5687 5686 5684 5683 5681 5679 5677 5675 5675 5675 5676 5676 5676 5676 5675 5674 5673 5672 5671 5670 5668 5668 5666 5664 5662 5661 5659 5656 5655 5655 5654 5654 5654 5654 5654 5654
5685 5686 5686 5686 5686 5684 5683 5682 5682 5681 5680 5678 5676 5674 5671 5670 5669 5669 5670 5670 5670 5669 5669 5667 5666 5665 5664 5662 5661 5660 5657 5655 5654 5651 5648 5645 5645 5646 5647 5646 5646 5646 5647
5683 5682 5682 5682 5682 5680 5679 5680 5678 5676 5675 5674 5672 5669 5666 5664 5663 5663 5663 5663 5664 5663 5662 5661 5660 5659 5658 5656 5655 5653 5651 5648 5646 5645 5642 5639 5636 5635 5637 5638 5637 5638 5639
5682 5680 5679 5678 5678 5677 5676 5675 5673 5672 5670 5669 5667 5664 5661 5658 5657 5656 5656 5656 5657 5657 5656 5655 5654 5653 5652 5650 5649 5648 5646 5644 5640 5638 5636 5634 5633 5630 5629 5630 5630 5631 5631
5679 5678 5677 5676 5675 5674 5672 5671 5668 5666 5665 5663 5662 5659 5656 5654 5652 5652 5651 5650 5650 5650 5650 5649 5648 5647 5645 5644 5643 5642 5641 5638 5636 5633 5630 5628 5627 5625 5623 5622 5622 5623 5624
5676 5675 5674 5672 5670 5669 5668 5666 5663 5661 5660 5658 5656 5653 5651 5649 5647 5646 5645 5644 5644 5644 5643 5643 5642 5641 5639 5638 5637 5636 5635 5633 5631 5628 5626 5624 5622 5620 5618 5615 5614 5615 5617
5671 5670 5668 5666 5665 5663 5662 5661 5659 5656 5655 5653 5650 5648 5647 5645 5643 5641 5640 5639 5638 5637 5637 5637 5636 5635 5634 5633 5632 5630 5629 5627 5625 5623 5621 5620 5619 5617 5615 5612 5609 5608 5609
5667 5666 5664 5663 5661 5659 5657 5655 5653 5651 5650 5648 5645 5643 5642 5639 5638 5636 5635 5634 5634 5633 5633 5632 5631 5629 5628 5627 5626 5624 5623 5622 5620 5619 5616 5615 5613 5612 5611 5608 5605 5602 5602
5662 5660 5660 5659 5657 5654 5652 5651 5648 5646 5644 5642 5640 5638 5636 5635 5633 5632 5631 5630 5629 5629 5628 5627 5625 5624 5623 5621 5620 5618 5616 5615 5613 5612 5611 5609 5608 5607 5606 5605 5603 5600 5596
5656 5655 5654 5653 5652 5650 5647 5645 5643 5641 5639 5637 5635 5634 5631 5630 5629 5628 5626 5625 5624 5623 5622 5621 5619 5618 5617 5615 5613 5611 5610 5608 5607 5605 5604 5602 5601 5601 5600 5599 5598 5596 5593
5651 5650 5648 5647 5646 5644 5642 5639 5637 5635 5633 5632 5630 5628 5626 5625 5623 5622 5621 5621 5620 5618 5617 5615 5614 5612 5610 5609 5607 5605 5603 5601 5599 5598 5597 5596 5595 5594 5593 5592 5591 5589 5587
5646 5645 5643 5641 5639 5637 5635 5633 5632 5630 5628 5626 5625 5622 5620 5619 5618 5617 5616 5615 5614 5613 5611 5609 5607 5605 5604 5602 5600 5598 5596 5594 5592 5591 5590 5589 5589 5587 5585 5584 5583 5582 5581
5640 5638 5636 5634 5633 5631 5629 5628 5626 5624 5622 5620 5618 5616 5614 5613 5612 5611 5610 5609 5608 5606 5605 5603 5601 5599 5597 5595 5594 5592 5590 5588 5586 5585 5583 5583 5581 5579 5578 5577 5576 5575 5575
5633 5631 5629 5627 5626 5624 5623 5621 5620 5618 5615 5613 5611 5609 5608 5607 5606 5605 5604 5603 5602 5600 5598 5596 5595 5593 5591 5589 5587 5585 5583 5581 5580 5578 5577 5576 5575 5574 5573 5572 5570 5569 5567
5627 5624 5621 5620 5618 5617 5615 5614 5612 5610 5609 5606 5604 5603 5601 5600 5599 5598 5597 5596 5595 5593 5592 5590 5588 5587 5585 5584 5581 5579 5577 5574 5572 5571 5571 5570 5570 5570 5568 5567 5564 5563 5560
5621 5618 5616 5613 5611 5609 5608 5606 5605 5603 5601 5599 5598 5596 5594 5592 5591 5591 5590 5588 5587 5586 5584 5582 5581 5579 5579 5579 5577 5573 5570 5568 5566 5565 5564 5564 5564 5564 5563 5562 5560 5558 5555
5614 5612 5609 5606 5604 5602 5600 5598 5597 5595 5594 5593 5591 5589 5587 5585 5584 5583 5582 5580 5579 5578 5576 5575 5573 5572 5572 5573 5571 5568 5565 5562 5560 5559 5558 5558 5558 5556 5555 5554 5554 5552 5551
5608 5605 5602 5600 5598 5595 5593 5592 5590 5588 5586 5584 5582 5581 5579 5578 5577 5575 5574 5573 5572 5570 5569 5568 5566 5565 5565 5566 5565 5562 5558 5556 5554 5553 5552 5551 5550 5550 5549 5547 5546 5544 5543
5602 5599 5596 5593 5590 5588 5586 5583 5581 5580 5578 5576 5575 5574 5572 5571 5570 5569 5567 5566 5564 5563 5562 5561 5559 5558 5558 5559 5558 5555 5551 5549 5548 5547 5546 5546 5544 5545 5544 5541 5539 5538 5538
5595 5592 5589 5586 5583 5580 5577 5575 5573 5571 5570 5569 5569 5567 5566 5565 5564 5563 5561 5559 5558 5557 5556 5554 5552 5551 5550 5550 5550 5548 5544 5541 5540 5540 5539 5540 5540 5540 5538 5535 5533 5532 5531
5587 5584 5580 5577 5575 5572 5569 5566 5564 5563 5563 5562 5561 5560 5559 5558 5558 5556 5555 5553 5552 5550 5549 5547 5545 5544 5543 5543 5542 5540 5537 5536 5534 5533 5533 5533 5534 5534 5533 5531 5529 5528 5527
5579 5576 5572 5568 5566 5564 5561 5558 5556 5556 5556 5555 5553 5552 5552 5551 5551 5549 5548 5546 5545 5543 5541 5539 5538 5537 5536 5535 5535 5534 5533 5532 5529 5528 5528 5528 5528 5528 5527 5525 5524 5523 5521
5571 5567 5563 5560 5557 5555 5553 5550 5550 5549 5548 5546 5545 5544 5543 5543 5542 5541 5540 5539 5537 5536 5535 5533 5531 5530 5530 5529 5529 5528 5527 5526 5524 5523 5523 5523 5523 5521 5520 5519 5519 5516 5514
5562 5559 5555 5552 5549 5547 5545 5544 5542 5541 5539 5538 5536 5535 5534 5534 5533 5533 5532 5531 5530 5529 5528 5527 5526 5525 5524 5522 5521 5521 5520 5519 5518 5517 5516 5516 5515 5514 5513 5512 5511 5509 5508
5554 5551 5547 5544 5542 5540 5538 5537 5535 5533 5530 5529 5528 5526 5526 5525 5524 5524 5524 5524 5525 5524 5522 5522 5521 5519 5518 5519 5518 5516 5515 5513 5512 5510 5507 5506 5505 5505 5505 5504 5504 5503 5502
5545 5542 5538 5536 5534 5532 5530 5528 5527 5524 5522 5520 5519 5518 5517 5516 5516 5515 5516 5516 5517 5517 5517 5517 5515 5515 5515 5514 5512 5511 5510 5509 5507 5504 5501 5500 5499 5499 5499 5498 5498 5497 5497